This is the latest recevied weather packets stored in our database for station/object SV1JSO-13. If no packets are shown the sender has not sent any weather packets the latest 10 day(s).
| Time | Temp. | Humidity | Pressure | Rain* | Wind** | Luminosity | Snow |
|---|---|---|---|---|---|---|---|
| 1788350700 | 34.44° C | 23% | 1008.6 hPa | 0 mm | - | 666 W/m² | - |
| 1788350400 | 34.44° C | 23% | 1008.8 hPa | 0 mm | - | 676 W/m² | - |
| 1788350100 | 34.44° C | 23% | 1008.7 hPa | 0 mm | - | 685 W/m² | - |
| 1788349800 | 34.44° C | 23% | 1008.8 hPa | 0 mm | - | 690 W/m² | - |
| 1788349500 | 34.44° C | 23% | 1008.9 hPa | 0 mm | - | 696 W/m² | - |
| 1788349200 | 34.44° C | 22% | 1008.8 hPa | 0 mm | - | 704 W/m² | - |
| 1788348900 | 34.44° C | 22% | 1008.7 hPa | 0 mm | - | 715 W/m² | - |
| 1788348600 | 33.89° C | 22% | 1008.8 hPa | 0 mm | - | 716 W/m² | - |
| 1788348300 | 34.44° C | 21% | 1008.8 hPa | 0 mm | - | 720 W/m² | - |
| 1788348000 | 34.44° C | 21% | 1008.9 hPa | 0 mm | - | 729 W/m² | - |
| 1788347700 | 34.44° C | 21% | 1008.9 hPa | 0 mm | - | 733 W/m² | - |
| 1788347400 | 35° C | 21% | 1008.9 hPa | 0 mm | - | 734 W/m² | - |
| 1788347100 | 34.44° C | 21% | 1008.9 hPa | 0 mm | - | 740 W/m² | - |
| 1788346800 | 34.44° C | 21% | 1009 hPa | 0 mm | - | 738 W/m² | - |
| 1788346500 | 34.44° C | 21% | 1009.1 hPa | 0 mm | - | 743 W/m² | - |
| 1788346200 | 34.44° C | 21% | 1009 hPa | 0 mm | - | 748 W/m² | - |
| 1788345900 | 33.89° C | 22% | 1009.2 hPa | 0 mm | - | 741 W/m² | - |
| 1788345600 | 34.44° C | 22% | 1009.2 hPa | 0 mm | - | 746 W/m² | - |
| 1788345300 | 33.89° C | 22% | 1009.1 hPa | 0 mm | - | 747 W/m² | - |
| 1788345000 | 34.44° C | 22% | 1009.1 hPa | 0 mm | - | 745 W/m² | - |
| 1788344700 | 33.89° C | 22% | 1009.2 hPa | 0 mm | - | 744 W/m² | - |
| 1788344400 | 34.44° C | 22% | 1009.1 hPa | 0 mm | - | 745 W/m² | - |
| 1788344100 | 34.44° C | 22% | 1009.4 hPa | 0 mm | - | 748 W/m² | - |
| 1788343800 | 34.44° C | 22% | 1009.1 hPa | 0 mm | - | 746 W/m² | - |
| 1788343500 | 33.89° C | 23% | 1009.2 hPa | 0 mm | - | 742 W/m² | - |
* Rain latest hour (hover to see other rain measurements)
** Current wind speed in m/s (hover to see current wind gust speed)